Year,Month,Day,Hour,Minute,Value (Times are PST for temperature in C)
2016,08,18,00,00,16.40
2016,08,18,00,01,16.40
2016,08,18,00,02,16.40
2016,08,18,00,03,16.40
2016,08,18,00,04,16.30
2016,08,18,00,05,16.30
2016,08,18,00,06,16.30
2016,08,18,00,07,16.30
2016,08,18,00,08,16.30
2016,08,18,00,09,16.30
2016,08,18,00,10,16.30
2016,08,18,00,11,16.30
2016,08,18,00,12,16.30
2016,08,18,00,13,16.20
2016,08,18,00,14,16.20
2016,08,18,00,15,16.20
2016,08,18,00,16,16.20
2016,08,18,00,17,16.20
2016,08,18,00,18,16.20
2016,08,18,00,19,16.20
2016,08,18,00,20,16.20
2016,08,18,00,21,16.10
2016,08,18,00,22,16.10
2016,08,18,00,23,16.10
2016,08,18,00,24,16.10
2016,08,18,00,25,16.10
2016,08,18,00,26,16.10
2016,08,18,00,27,16.10
2016,08,18,00,28,16.10
2016,08,18,00,29,16.10
2016,08,18,00,30,16.10
2016,08,18,00,31,16.10
2016,08,18,00,32,16.10
2016,08,18,00,33,16.10
2016,08,18,00,34,16.10
2016,08,18,00,35,16.00
2016,08,18,00,36,16.00
2016,08,18,00,37,16.00
2016,08,18,00,38,16.00
2016,08,18,00,39,16.00
2016,08,18,00,40,16.00
2016,08,18,00,41,16.00
2016,08,18,00,42,15.90
2016,08,18,00,43,15.90
2016,08,18,00,44,15.90
2016,08,18,00,45,15.90
2016,08,18,00,46,15.90
2016,08,18,00,47,15.90
2016,08,18,00,48,15.90
2016,08,18,00,49,15.80
2016,08,18,00,50,15.80
2016,08,18,00,51,15.80
2016,08,18,00,52,15.70
2016,08,18,00,53,15.70
2016,08,18,00,54,15.70
2016,08,18,00,55,15.60
2016,08,18,00,56,15.50
2016,08,18,00,57,15.50
2016,08,18,00,58,15.40
2016,08,18,00,59,15.40
2016,08,18,01,00,15.30
2016,08,18,01,01,15.30
2016,08,18,01,02,15.30
2016,08,18,01,03,15.20
2016,08,18,01,04,15.20
2016,08,18,01,05,15.20
2016,08,18,01,06,15.20
2016,08,18,01,07,15.10
2016,08,18,01,08,15.10
2016,08,18,01,09,15.10
2016,08,18,01,10,15.10
2016,08,18,01,11,15.00
2016,08,18,01,12,15.00
2016,08,18,01,13,15.00
2016,08,18,01,14,15.00
2016,08,18,01,15,14.90
2016,08,18,01,16,14.90
2016,08,18,01,17,14.90
2016,08,18,01,18,14.90
2016,08,18,01,19,14.90
2016,08,18,01,20,14.90
2016,08,18,01,21,14.80
2016,08,18,01,22,14.80
2016,08,18,01,23,14.80
2016,08,18,01,24,14.80
2016,08,18,01,25,14.80
2016,08,18,01,26,14.80
2016,08,18,01,27,14.80
2016,08,18,01,28,14.80
2016,08,18,01,29,14.80
2016,08,18,01,30,14.80
2016,08,18,01,31,14.80
2016,08,18,01,32,14.80
2016,08,18,01,33,14.80
2016,08,18,01,34,14.80
2016,08,18,01,35,14.80
2016,08,18,01,36,14.80
2016,08,18,01,37,14.80
2016,08,18,01,38,14.70
2016,08,18,01,39,14.70
2016,08,18,01,40,14.70
2016,08,18,01,41,14.70
2016,08,18,01,42,14.70
2016,08,18,01,43,14.70
2016,08,18,01,44,14.70
2016,08,18,01,45,14.70
2016,08,18,01,46,14.70
2016,08,18,01,47,14.60
2016,08,18,01,48,14.60
2016,08,18,01,49,14.60
2016,08,18,01,50,14.60
2016,08,18,01,51,14.60
2016,08,18,01,52,14.60
2016,08,18,01,53,14.60
2016,08,18,01,54,14.60
2016,08,18,01,55,14.60
2016,08,18,01,56,14.60
2016,08,18,01,57,14.60
2016,08,18,01,58,14.50
2016,08,18,01,59,14.50
2016,08,18,02,00,14.50
2016,08,18,02,01,14.50
2016,08,18,02,02,14.50
2016,08,18,02,03,14.50
2016,08,18,02,04,14.50
2016,08,18,02,05,14.50
2016,08,18,02,06,14.50
2016,08,18,02,07,14.40
2016,08,18,02,08,14.40
2016,08,18,02,09,14.40
2016,08,18,02,10,14.40
2016,08,18,02,11,14.40
2016,08,18,02,12,14.40
2016,08,18,02,13,14.30
2016,08,18,02,14,14.30
2016,08,18,02,15,14.30
2016,08,18,02,16,14.30
2016,08,18,02,17,14.30
2016,08,18,02,18,14.20
2016,08,18,02,19,14.20
2016,08,18,02,20,14.20
2016,08,18,02,21,14.20
2016,08,18,02,22,14.20
2016,08,18,02,23,14.20
2016,08,18,02,24,14.20
2016,08,18,02,25,14.20
2016,08,18,02,26,14.20
2016,08,18,02,27,14.20
2016,08,18,02,28,14.20
2016,08,18,02,29,14.20
2016,08,18,02,30,14.20
2016,08,18,02,31,14.20
2016,08,18,02,32,14.20
2016,08,18,02,33,14.20
2016,08,18,02,34,14.20
2016,08,18,02,35,14.20
2016,08,18,02,36,14.20
2016,08,18,02,37,14.20
2016,08,18,02,38,14.20
2016,08,18,02,39,14.20
2016,08,18,02,40,14.20
2016,08,18,02,41,14.20
2016,08,18,02,42,14.20
2016,08,18,02,43,14.20
2016,08,18,02,44,14.20
2016,08,18,02,45,14.20
2016,08,18,02,46,14.20
2016,08,18,02,47,14.20
2016,08,18,02,48,14.20
2016,08,18,02,49,14.20
2016,08,18,02,50,14.20
2016,08,18,02,51,14.10
2016,08,18,02,52,14.10
2016,08,18,02,53,14.10
2016,08,18,02,54,14.10
2016,08,18,02,55,14.10
2016,08,18,02,56,14.10
2016,08,18,02,57,14.10
2016,08,18,02,58,14.10
2016,08,18,02,59,14.10
2016,08,18,03,00,14.10
2016,08,18,03,01,14.10
2016,08,18,03,02,14.10
2016,08,18,03,03,14.10
2016,08,18,03,04,14.10
2016,08,18,03,05,14.10
2016,08,18,03,06,14.10
2016,08,18,03,07,14.10
2016,08,18,03,08,14.10
2016,08,18,03,09,14.10
2016,08,18,03,10,14.10
2016,08,18,03,11,14.10
2016,08,18,03,12,14.10
2016,08,18,03,13,14.10
2016,08,18,03,14,14.20
2016,08,18,03,15,14.20
2016,08,18,03,16,14.20
2016,08,18,03,17,14.20
2016,08,18,03,18,14.20
2016,08,18,03,19,14.20
2016,08,18,03,20,14.20
2016,08,18,03,21,14.20
2016,08,18,03,22,14.10
2016,08,18,03,23,14.10
2016,08,18,03,24,14.10
2016,08,18,03,25,14.10
2016,08,18,03,26,14.10
2016,08,18,03,27,14.10
2016,08,18,03,28,14.00
2016,08,18,03,29,14.00
2016,08,18,03,30,13.90
2016,08,18,03,31,13.90
2016,08,18,03,32,13.80
2016,08,18,03,33,13.80
2016,08,18,03,34,13.70
2016,08,18,03,35,13.60
2016,08,18,03,36,13.60
2016,08,18,03,37,13.50
2016,08,18,03,38,13.50
2016,08,18,03,39,13.40
2016,08,18,03,40,13.40
2016,08,18,03,41,13.40
2016,08,18,03,42,13.30
2016,08,18,03,43,13.30
2016,08,18,03,44,13.30
2016,08,18,03,45,13.30
2016,08,18,03,46,13.30
2016,08,18,03,47,13.30
2016,08,18,03,48,13.30
2016,08,18,03,49,13.30
2016,08,18,03,50,13.40
2016,08,18,03,51,13.40
2016,08,18,03,52,13.40
2016,08,18,03,53,13.40
2016,08,18,03,54,13.40
2016,08,18,03,55,13.40
2016,08,18,03,56,13.40
2016,08,18,03,57,13.40
2016,08,18,03,58,13.40
2016,08,18,03,59,13.40
2016,08,18,04,00,13.40
2016,08,18,04,01,13.40
2016,08,18,04,02,13.40
2016,08,18,04,03,13.40
2016,08,18,04,04,13.30
2016,08,18,04,05,13.30
2016,08,18,04,06,13.30
2016,08,18,04,07,13.30
2016,08,18,04,08,13.30
2016,08,18,04,09,13.20
2016,08,18,04,10,13.20
2016,08,18,04,11,13.20
2016,08,18,04,12,13.20
2016,08,18,04,13,13.20
2016,08,18,04,14,13.20
2016,08,18,04,15,13.20
2016,08,18,04,16,13.20
2016,08,18,04,17,13.20
2016,08,18,04,18,13.20
2016,08,18,04,19,13.10
2016,08,18,04,20,13.10
2016,08,18,04,21,13.10
2016,08,18,04,22,13.10
2016,08,18,04,23,13.10
2016,08,18,04,24,13.10
2016,08,18,04,25,13.10
2016,08,18,04,26,13.10
2016,08,18,04,27,13.10
2016,08,18,04,28,13.10
2016,08,18,04,29,13.10
2016,08,18,04,30,13.10
2016,08,18,04,31,13.00
2016,08,18,04,32,13.00
2016,08,18,04,33,13.00
2016,08,18,04,34,13.00
2016,08,18,04,35,13.00
2016,08,18,04,36,13.00
2016,08,18,04,37,13.00
2016,08,18,04,38,13.00
2016,08,18,04,39,13.00
2016,08,18,04,40,13.00
2016,08,18,04,41,13.00
2016,08,18,04,42,13.00
2016,08,18,04,43,13.00
2016,08,18,04,44,12.90
2016,08,18,04,45,12.90
2016,08,18,04,46,12.90
2016,08,18,04,47,12.90
2016,08,18,04,48,12.90
2016,08,18,04,49,12.90
2016,08,18,04,50,12.90
2016,08,18,04,51,12.90
2016,08,18,04,52,12.90
2016,08,18,04,53,12.90
2016,08,18,04,54,12.90
2016,08,18,04,55,12.90
2016,08,18,04,56,12.90
2016,08,18,04,57,12.90
2016,08,18,04,58,12.90
2016,08,18,04,59,12.90
2016,08,18,05,00,12.90
2016,08,18,05,01,12.90
2016,08,18,05,02,12.90
2016,08,18,05,03,12.80
2016,08,18,05,04,12.80
2016,08,18,05,05,12.80
2016,08,18,05,06,12.80
2016,08,18,05,07,12.80
2016,08,18,05,08,12.80
2016,08,18,05,09,12.80
2016,08,18,05,10,12.90
2016,08,18,05,11,12.90
2016,08,18,05,12,12.90
2016,08,18,05,13,12.90
2016,08,18,05,14,12.90
2016,08,18,05,15,12.90
2016,08,18,05,16,12.90
2016,08,18,05,17,12.90
2016,08,18,05,18,12.90
2016,08,18,05,19,12.90
2016,08,18,05,20,12.90
2016,08,18,05,21,12.90
2016,08,18,05,22,12.90
2016,08,18,05,23,12.90
2016,08,18,05,24,12.90
2016,08,18,05,25,12.90
2016,08,18,05,26,12.90
2016,08,18,05,27,12.90
2016,08,18,05,28,12.90
2016,08,18,05,29,12.90
2016,08,18,05,30,12.90
2016,08,18,05,31,12.90
2016,08,18,05,32,12.90
2016,08,18,05,33,12.90
2016,08,18,05,34,12.90
2016,08,18,05,35,12.90
2016,08,18,05,36,12.90
2016,08,18,05,37,12.80
2016,08,18,05,38,12.80
2016,08,18,05,39,12.80
2016,08,18,05,40,12.80
2016,08,18,05,41,12.80
2016,08,18,05,42,12.80
2016,08,18,05,43,12.80
2016,08,18,05,44,12.80
2016,08,18,05,45,12.80
2016,08,18,05,46,12.80
2016,08,18,05,47,12.80
2016,08,18,05,48,12.80
2016,08,18,05,49,12.80
2016,08,18,05,50,12.80
2016,08,18,05,51,12.80
2016,08,18,05,52,12.80
2016,08,18,05,53,12.80
2016,08,18,05,54,12.80
2016,08,18,05,55,12.80
2016,08,18,05,56,12.70
2016,08,18,05,57,12.70
2016,08,18,05,58,12.70
2016,08,18,05,59,12.70
2016,08,18,06,00,12.70
2016,08,18,06,01,12.70
2016,08,18,06,02,12.70
2016,08,18,06,03,12.70
2016,08,18,06,04,12.70
2016,08,18,06,05,12.70
2016,08,18,06,06,12.70
2016,08,18,06,07,12.70
2016,08,18,06,08,12.70
2016,08,18,06,09,12.70
2016,08,18,06,10,12.60
2016,08,18,06,11,12.60
2016,08,18,06,12,12.60
2016,08,18,06,13,12.60
2016,08,18,06,14,12.50
2016,08,18,06,15,12.50
2016,08,18,06,16,12.50
2016,08,18,06,17,12.50
2016,08,18,06,18,12.50
2016,08,18,06,19,12.50
2016,08,18,06,20,12.50
2016,08,18,06,21,12.60
2016,08,18,06,22,12.60
2016,08,18,06,23,12.60
2016,08,18,06,24,12.60
2016,08,18,06,25,12.60
2016,08,18,06,26,12.70
2016,08,18,06,27,12.70
2016,08,18,06,28,12.70
2016,08,18,06,29,12.60
2016,08,18,06,30,12.60
2016,08,18,06,31,12.60
2016,08,18,06,32,12.60
2016,08,18,06,33,12.50
2016,08,18,06,34,12.50
2016,08,18,06,35,12.50
2016,08,18,06,36,12.50
2016,08,18,06,37,12.50
2016,08,18,06,38,12.50
2016,08,18,06,39,12.50
2016,08,18,06,40,12.50
2016,08,18,06,41,12.50
2016,08,18,06,42,12.60
2016,08,18,06,43,12.60
2016,08,18,06,44,12.60
2016,08,18,06,45,12.60
2016,08,18,06,46,12.60
2016,08,18,06,47,12.60
2016,08,18,06,48,12.60
2016,08,18,06,49,12.60
2016,08,18,06,50,12.60
2016,08,18,06,51,12.50
2016,08,18,06,52,12.50
2016,08,18,06,53,12.50
2016,08,18,06,54,12.50
2016,08,18,06,55,12.50
2016,08,18,06,56,12.50
2016,08,18,06,57,12.50
2016,08,18,06,58,12.60
2016,08,18,06,59,12.60
2016,08,18,07,00,12.60
2016,08,18,07,01,12.60
2016,08,18,07,02,12.70
2016,08,18,07,03,12.70
2016,08,18,07,04,12.70
2016,08,18,07,05,12.70
2016,08,18,07,06,12.80
2016,08,18,07,07,12.80
2016,08,18,07,08,12.80
2016,08,18,07,09,12.90
2016,08,18,07,10,12.90
2016,08,18,07,11,13.00
2016,08,18,07,12,13.00
2016,08,18,07,13,13.10
2016,08,18,07,14,13.10
2016,08,18,07,15,13.10
2016,08,18,07,16,13.20
2016,08,18,07,17,13.20
2016,08,18,07,18,13.20
2016,08,18,07,19,13.20
2016,08,18,07,20,13.30
2016,08,18,07,21,13.30
2016,08,18,07,22,13.40
2016,08,18,07,23,13.50
2016,08,18,07,24,13.60
2016,08,18,07,25,13.70
2016,08,18,07,26,13.80
2016,08,18,07,27,13.90
2016,08,18,07,28,14.00
2016,08,18,07,29,14.10
2016,08,18,07,30,14.20
2016,08,18,07,31,14.20
2016,08,18,07,32,14.30
2016,08,18,07,33,14.40
2016,08,18,07,34,14.40
2016,08,18,07,35,14.50
2016,08,18,07,36,14.60
2016,08,18,07,37,14.60
2016,08,18,07,38,14.70
2016,08,18,07,39,14.70
2016,08,18,07,40,14.80
2016,08,18,07,41,14.80
2016,08,18,07,42,14.90
2016,08,18,07,43,15.00
2016,08,18,07,44,15.00
2016,08,18,07,45,15.00
2016,08,18,07,46,15.10
2016,08,18,07,47,15.20
2016,08,18,07,48,15.20
2016,08,18,07,49,15.20
2016,08,18,07,50,15.30
2016,08,18,07,51,15.30
2016,08,18,07,52,15.40
2016,08,18,07,53,15.50
2016,08,18,07,54,15.60
2016,08,18,07,55,15.60
2016,08,18,07,56,15.70
2016,08,18,07,57,15.80
2016,08,18,07,58,15.80
2016,08,18,07,59,15.90
2016,08,18,08,00,16.00
2016,08,18,08,01,16.10
2016,08,18,08,02,16.10
2016,08,18,08,03,16.20
2016,08,18,08,04,16.30
2016,08,18,08,05,16.40
2016,08,18,08,06,16.50
2016,08,18,08,07,16.50
2016,08,18,08,08,16.60
2016,08,18,08,09,16.70
2016,08,18,08,10,16.70
2016,08,18,08,11,16.80
2016,08,18,08,12,16.80
2016,08,18,08,13,16.90
2016,08,18,08,14,17.00
2016,08,18,08,15,17.00
2016,08,18,08,16,17.10
2016,08,18,08,17,17.20
2016,08,18,08,18,17.20
2016,08,18,08,19,17.30
2016,08,18,08,20,17.30
2016,08,18,08,21,17.40
2016,08,18,08,22,17.50
2016,08,18,08,23,17.50
2016,08,18,08,24,17.60
2016,08,18,08,25,17.70
2016,08,18,08,26,17.80
2016,08,18,08,27,17.80
2016,08,18,08,28,17.90
2016,08,18,08,29,18.00
2016,08,18,08,30,18.00
2016,08,18,08,31,18.10
2016,08,18,08,32,18.20
2016,08,18,08,33,18.20
2016,08,18,08,34,18.30
2016,08,18,08,35,18.30
2016,08,18,08,36,18.30
2016,08,18,08,37,18.40
2016,08,18,08,38,18.40
2016,08,18,08,39,18.50
2016,08,18,08,40,18.60
2016,08,18,08,41,18.60
2016,08,18,08,42,18.60
2016,08,18,08,43,18.70
2016,08,18,08,44,18.80
2016,08,18,08,45,18.80
2016,08,18,08,46,18.80
2016,08,18,08,47,18.90
2016,08,18,08,48,18.90
2016,08,18,08,49,19.00
2016,08,18,08,50,19.10
2016,08,18,08,51,19.10
2016,08,18,08,52,19.20
2016,08,18,08,53,19.30
2016,08,18,08,54,19.30
2016,08,18,08,55,19.40
2016,08,18,08,56,19.40
2016,08,18,08,57,19.50
2016,08,18,08,58,19.60
2016,08,18,08,59,19.60
2016,08,18,09,00,19.70
2016,08,18,09,01,19.80
2016,08,18,09,02,19.90
2016,08,18,09,03,19.90
2016,08,18,09,04,20.00
2016,08,18,09,05,20.10
2016,08,18,09,06,20.10
2016,08,18,09,07,20.20
2016,08,18,09,08,20.20
2016,08,18,09,09,20.20
2016,08,18,09,10,20.30
2016,08,18,09,11,20.30
2016,08,18,09,12,20.40
2016,08,18,09,13,20.40
2016,08,18,09,14,20.50
2016,08,18,09,15,20.50
2016,08,18,09,16,20.60
2016,08,18,09,17,20.60
2016,08,18,09,18,20.70
2016,08,18,09,19,20.80
2016,08,18,09,20,20.90
2016,08,18,09,21,20.90
2016,08,18,09,22,21.00
2016,08,18,09,23,21.10
2016,08,18,09,24,21.20
2016,08,18,09,25,21.30
2016,08,18,09,26,21.40
2016,08,18,09,27,21.50
2016,08,18,09,28,21.50
2016,08,18,09,29,21.60
2016,08,18,09,30,21.70
2016,08,18,09,31,21.70
2016,08,18,09,32,21.70
2016,08,18,09,33,21.70
2016,08,18,09,34,21.70
2016,08,18,09,35,21.70
2016,08,18,09,36,21.70
2016,08,18,09,37,21.80
2016,08,18,09,38,21.80
2016,08,18,09,39,21.80
2016,08,18,09,40,21.90
2016,08,18,09,41,22.00
2016,08,18,09,42,22.00
2016,08,18,09,43,22.10
2016,08,18,09,44,22.10
2016,08,18,09,45,22.20
2016,08,18,09,46,22.30
2016,08,18,09,47,22.30
2016,08,18,09,48,22.40
2016,08,18,09,49,22.60
2016,08,18,09,50,22.70
2016,08,18,09,51,22.80
2016,08,18,09,52,22.80
2016,08,18,09,53,22.90
2016,08,18,09,54,22.90
2016,08,18,09,55,23.00
2016,08,18,09,56,23.00
2016,08,18,09,57,23.10
2016,08,18,09,58,23.10
2016,08,18,09,59,23.20
2016,08,18,10,00,23.30
2016,08,18,10,01,23.30
2016,08,18,10,02,23.40
2016,08,18,10,03,23.40
2016,08,18,10,04,23.40
2016,08,18,10,05,23.50
2016,08,18,10,06,23.60
2016,08,18,10,07,23.70
2016,08,18,10,08,23.80
2016,08,18,10,09,23.80
2016,08,18,10,10,23.90
2016,08,18,10,11,24.00
2016,08,18,10,12,24.10
2016,08,18,10,13,24.20
2016,08,18,10,14,24.30
2016,08,18,10,15,24.40
2016,08,18,10,16,24.50
2016,08,18,10,17,24.60
2016,08,18,10,18,24.60
2016,08,18,10,19,24.70
2016,08,18,10,20,24.80
2016,08,18,10,21,24.80
2016,08,18,10,22,24.90
2016,08,18,10,23,24.90
2016,08,18,10,24,24.90
2016,08,18,10,25,24.90
2016,08,18,10,26,24.90
2016,08,18,10,27,24.90
2016,08,18,10,28,24.90
2016,08,18,10,29,25.00
2016,08,18,10,30,25.10
2016,08,18,10,31,25.00
2016,08,18,10,32,25.00
2016,08,18,10,33,24.90
2016,08,18,10,34,24.90
2016,08,18,10,35,25.00
2016,08,18,10,36,25.00
2016,08,18,10,37,25.00
2016,08,18,10,38,25.10
2016,08,18,10,39,25.10
2016,08,18,10,40,25.00
2016,08,18,10,41,25.00
2016,08,18,10,42,25.00
2016,08,18,10,43,24.90
2016,08,18,10,44,24.90
2016,08,18,10,45,24.90
2016,08,18,10,46,24.90
2016,08,18,10,47,24.90
2016,08,18,10,48,25.00
2016,08,18,10,49,25.00
2016,08,18,10,50,25.10
2016,08,18,10,51,25.10
2016,08,18,10,52,25.10
2016,08,18,10,53,25.10
2016,08,18,10,54,25.20
2016,08,18,10,55,25.20
2016,08,18,10,56,25.20
2016,08,18,10,57,25.20
2016,08,18,10,58,25.20
2016,08,18,10,59,25.20
2016,08,18,11,00,25.20
2016,08,18,11,01,25.20
2016,08,18,11,02,25.10
2016,08,18,11,03,25.00
2016,08,18,11,04,25.00
2016,08,18,11,05,25.00
2016,08,18,11,06,25.10
2016,08,18,11,07,25.10
2016,08,18,11,08,25.10
2016,08,18,11,09,25.10
2016,08,18,11,10,25.20
2016,08,18,11,11,25.30
2016,08,18,11,12,25.40
2016,08,18,11,13,25.50
2016,08,18,11,14,25.60
2016,08,18,11,15,25.60
2016,08,18,11,16,25.60
2016,08,18,11,17,25.50
2016,08,18,11,18,25.50
2016,08,18,11,19,25.40
2016,08,18,11,20,25.40
2016,08,18,11,21,25.50
2016,08,18,11,22,25.50
2016,08,18,11,23,25.50
2016,08,18,11,24,25.50
2016,08,18,11,25,25.60
2016,08,18,11,26,25.70
2016,08,18,11,27,25.80
2016,08,18,11,28,25.90
2016,08,18,11,29,26.00
2016,08,18,11,30,26.10
2016,08,18,11,31,26.20
2016,08,18,11,32,26.30
2016,08,18,11,33,26.30
2016,08,18,11,34,26.40
2016,08,18,11,35,26.40
2016,08,18,11,36,26.50
2016,08,18,11,37,26.50
2016,08,18,11,38,26.50
2016,08,18,11,39,26.40
2016,08,18,11,40,26.50
2016,08,18,11,41,26.60
2016,08,18,11,42,26.60
2016,08,18,11,43,26.50
2016,08,18,11,44,26.50
2016,08,18,11,45,26.40
2016,08,18,11,46,26.40
2016,08,18,11,47,26.50
2016,08,18,11,48,26.50
2016,08,18,11,49,26.60
2016,08,18,11,50,26.60
2016,08,18,11,51,26.60
2016,08,18,11,52,26.60
2016,08,18,11,53,26.60
2016,08,18,11,54,26.60
2016,08,18,11,55,26.50
2016,08,18,11,56,26.50
2016,08,18,11,57,26.60
2016,08,18,11,58,26.60
2016,08,18,11,59,26.70
2016,08,18,12,00,26.60
2016,08,18,12,01,26.70
2016,08,18,12,02,26.70
2016,08,18,12,03,26.70
2016,08,18,12,04,26.80
2016,08,18,12,05,26.80
2016,08,18,12,06,26.90
2016,08,18,12,07,26.90
2016,08,18,12,08,26.90
2016,08,18,12,09,27.00
2016,08,18,12,10,27.00
2016,08,18,12,11,27.00
2016,08,18,12,12,27.00
2016,08,18,12,13,27.10
2016,08,18,12,14,27.20
2016,08,18,12,15,27.20
2016,08,18,12,16,27.30
2016,08,18,12,17,27.40
2016,08,18,12,18,27.50
2016,08,18,12,19,27.60
2016,08,18,12,20,27.60
2016,08,18,12,21,27.70
2016,08,18,12,22,27.70
2016,08,18,12,23,27.80
2016,08,18,12,24,27.80
2016,08,18,12,25,27.80
2016,08,18,12,26,27.90
2016,08,18,12,27,27.80
2016,08,18,12,28,27.80
2016,08,18,12,29,27.80
2016,08,18,12,30,27.80
2016,08,18,12,31,27.80
2016,08,18,12,32,27.90
2016,08,18,12,33,27.90
2016,08,18,12,34,28.00
2016,08,18,12,35,28.10
2016,08,18,12,36,28.20
2016,08,18,12,37,28.30
2016,08,18,12,38,28.40
2016,08,18,12,39,28.40
2016,08,18,12,40,28.40
2016,08,18,12,41,28.40
2016,08,18,12,42,28.40
2016,08,18,12,43,28.40
2016,08,18,12,44,28.40
2016,08,18,12,45,28.40
2016,08,18,12,46,28.50
2016,08,18,12,47,28.60
2016,08,18,12,48,28.70
2016,08,18,12,49,28.80
2016,08,18,12,50,28.80
2016,08,18,12,51,28.90
2016,08,18,12,52,28.90
2016,08,18,12,53,28.90
2016,08,18,12,54,28.90
2016,08,18,12,55,28.90
2016,08,18,12,56,28.80
2016,08,18,12,57,28.60
2016,08,18,12,58,28.50
2016,08,18,12,59,28.30
2016,08,18,13,00,28.30
2016,08,18,13,01,28.30
2016,08,18,13,02,28.30
2016,08,18,13,03,28.40
2016,08,18,13,04,28.40
2016,08,18,13,05,28.30
2016,08,18,13,06,28.10
2016,08,18,13,07,27.90
2016,08,18,13,08,27.80
2016,08,18,13,09,27.70
2016,08,18,13,10,27.80
2016,08,18,13,11,27.80
2016,08,18,13,12,27.90
2016,08,18,13,13,27.90
2016,08,18,13,14,27.90
2016,08,18,13,15,28.00
2016,08,18,13,16,28.10
2016,08,18,13,17,28.20
2016,08,18,13,18,28.30
2016,08,18,13,19,28.50
2016,08,18,13,20,28.60
2016,08,18,13,21,28.70
2016,08,18,13,22,28.70
2016,08,18,13,23,28.80
2016,08,18,13,24,28.90
2016,08,18,13,25,29.00
2016,08,18,13,26,29.20
2016,08,18,13,27,29.20
2016,08,18,13,28,29.30
2016,08,18,13,29,29.30
2016,08,18,13,30,29.30
2016,08,18,13,31,29.40
2016,08,18,13,32,29.40
2016,08,18,13,33,29.40
2016,08,18,13,34,29.50
2016,08,18,13,35,29.50
2016,08,18,13,36,29.60
2016,08,18,13,37,29.60
2016,08,18,13,38,29.60
2016,08,18,13,39,29.60
2016,08,18,13,40,29.60
2016,08,18,13,41,29.60
2016,08,18,13,42,29.70
2016,08,18,13,43,29.70
2016,08,18,13,44,29.80
2016,08,18,13,45,30.00
2016,08,18,13,46,30.10
2016,08,18,13,47,30.30
2016,08,18,13,48,30.40
2016,08,18,13,49,30.50
2016,08,18,13,50,30.60
2016,08,18,13,51,30.70
2016,08,18,13,52,30.80
2016,08,18,13,53,30.80
2016,08,18,13,54,30.90
2016,08,18,13,55,31.00
2016,08,18,13,56,31.10
2016,08,18,13,57,31.10
2016,08,18,13,58,31.00
2016,08,18,13,59,30.90
2016,08,18,14,00,30.90
2016,08,18,14,01,30.90
2016,08,18,14,02,30.90
2016,08,18,14,03,30.80
2016,08,18,14,04,30.80
2016,08,18,14,05,30.70
2016,08,18,14,06,30.70
2016,08,18,14,07,30.70
2016,08,18,14,08,30.50
2016,08,18,14,09,30.30
2016,08,18,14,10,30.20
2016,08,18,14,11,30.10
2016,08,18,14,12,30.00
2016,08,18,14,13,30.00
2016,08,18,14,14,30.00
2016,08,18,14,15,30.00
2016,08,18,14,16,30.00
2016,08,18,14,17,30.00
2016,08,18,14,18,30.00
2016,08,18,14,19,29.90
2016,08,18,14,20,29.80
2016,08,18,14,21,29.80
2016,08,18,14,22,29.70
2016,08,18,14,23,29.70
2016,08,18,14,24,29.70
2016,08,18,14,25,29.70
2016,08,18,14,26,29.70
2016,08,18,14,27,29.80
2016,08,18,14,28,29.90
2016,08,18,14,29,29.90
2016,08,18,14,30,30.00
2016,08,18,14,31,30.00
2016,08,18,14,32,30.10
2016,08,18,14,33,30.10
2016,08,18,14,34,30.10
2016,08,18,14,35,30.10
2016,08,18,14,36,30.10
2016,08,18,14,37,30.10
2016,08,18,14,38,30.10
2016,08,18,14,39,30.20
2016,08,18,14,40,30.20
2016,08,18,14,41,30.20
2016,08,18,14,42,30.20
2016,08,18,14,43,30.20
2016,08,18,14,44,30.20
2016,08,18,14,45,30.20
2016,08,18,14,46,30.30
2016,08,18,14,47,30.30
2016,08,18,14,48,30.30
2016,08,18,14,49,30.40
2016,08,18,14,50,30.40
2016,08,18,14,51,30.50
2016,08,18,14,52,30.50
2016,08,18,14,53,30.40
2016,08,18,14,54,30.40
2016,08,18,14,55,30.50
2016,08,18,14,56,30.50
2016,08,18,14,57,30.50
2016,08,18,14,58,30.60
2016,08,18,14,59,30.50
2016,08,18,15,00,30.50
2016,08,18,15,01,30.40
2016,08,18,15,02,30.40
2016,08,18,15,03,30.40
2016,08,18,15,04,30.40
2016,08,18,15,05,30.40
2016,08,18,15,06,30.30
2016,08,18,15,07,30.20
2016,08,18,15,08,30.20
2016,08,18,15,09,30.10
2016,08,18,15,10,30.10
2016,08,18,15,11,30.10
2016,08,18,15,12,30.20
2016,08,18,15,13,30.20
2016,08,18,15,14,30.20
2016,08,18,15,15,30.20
2016,08,18,15,16,30.20
2016,08,18,15,17,30.20
2016,08,18,15,18,30.30
2016,08,18,15,19,30.40
2016,08,18,15,20,30.50
2016,08,18,15,21,30.60
2016,08,18,15,22,30.70
2016,08,18,15,23,30.70
2016,08,18,15,24,30.70
2016,08,18,15,25,30.70
2016,08,18,15,26,30.60
2016,08,18,15,27,30.60
2016,08,18,15,28,30.50
2016,08,18,15,29,30.40
2016,08,18,15,30,30.40
2016,08,18,15,31,30.50
2016,08,18,15,32,30.50
2016,08,18,15,33,30.60
2016,08,18,15,34,30.70
2016,08,18,15,35,30.80
2016,08,18,15,36,30.90
2016,08,18,15,37,31.00
2016,08,18,15,38,31.00
2016,08,18,15,39,31.10
2016,08,18,15,40,31.20
2016,08,18,15,41,31.30
2016,08,18,15,42,31.30
2016,08,18,15,43,31.40
2016,08,18,15,44,31.40
2016,08,18,15,45,31.40
2016,08,18,15,46,31.40
2016,08,18,15,47,31.40
2016,08,18,15,48,31.30
2016,08,18,15,49,31.30
2016,08,18,15,50,31.30
2016,08,18,15,51,31.30
2016,08,18,15,52,31.30
2016,08,18,15,53,31.30
2016,08,18,15,54,31.30
2016,08,18,15,55,31.30
2016,08,18,15,56,31.30
2016,08,18,15,57,31.20
2016,08,18,15,58,31.30
2016,08,18,15,59,31.30
2016,08,18,16,00,31.40
2016,08,18,16,01,31.50
2016,08,18,16,02,31.60
2016,08,18,16,03,31.60
2016,08,18,16,04,31.60
2016,08,18,16,05,31.60
2016,08,18,16,06,31.60
2016,08,18,16,07,31.60
2016,08,18,16,08,31.60
2016,08,18,16,09,31.60
2016,08,18,16,10,31.50
2016,08,18,16,11,31.40
2016,08,18,16,12,31.30
2016,08,18,16,13,31.30
2016,08,18,16,14,31.30
2016,08,18,16,15,31.30
2016,08,18,16,16,31.20
2016,08,18,16,17,31.20
2016,08,18,16,18,31.20
2016,08,18,16,19,31.20
2016,08,18,16,20,31.20
2016,08,18,16,21,31.30
2016,08,18,16,22,31.20
2016,08,18,16,23,31.10
2016,08,18,16,24,30.90
2016,08,18,16,25,30.70
2016,08,18,16,26,30.60
2016,08,18,16,27,30.60
2016,08,18,16,28,30.60
2016,08,18,16,29,30.60
2016,08,18,16,30,30.60
2016,08,18,16,31,30.60
2016,08,18,16,32,30.70
2016,08,18,16,33,30.70
2016,08,18,16,34,30.80
2016,08,18,16,35,30.90
2016,08,18,16,36,31.00
2016,08,18,16,37,31.00
2016,08,18,16,38,31.10
2016,08,18,16,39,31.10
2016,08,18,16,40,31.10
2016,08,18,16,41,31.20
2016,08,18,16,42,31.20
2016,08,18,16,43,31.30
2016,08,18,16,44,31.30
2016,08,18,16,45,31.30
2016,08,18,16,46,31.40
2016,08,18,16,47,31.40
2016,08,18,16,48,31.40
2016,08,18,16,49,31.40
2016,08,18,16,50,31.40
2016,08,18,16,51,31.40
2016,08,18,16,52,31.30
2016,08,18,16,53,31.40
2016,08,18,16,54,31.40
2016,08,18,16,55,31.40
2016,08,18,16,56,31.40
2016,08,18,16,57,31.40
2016,08,18,16,58,31.40
2016,08,18,16,59,31.40
2016,08,18,17,00,31.40
2016,08,18,17,01,31.40
2016,08,18,17,02,31.40
2016,08,18,17,03,31.40
2016,08,18,17,04,31.40
2016,08,18,17,05,31.50
2016,08,18,17,06,31.50
2016,08,18,17,07,31.50
2016,08,18,17,08,31.50
2016,08,18,17,09,31.50
2016,08,18,17,10,31.50
2016,08,18,17,11,31.50
2016,08,18,17,12,31.60
2016,08,18,17,13,31.60
2016,08,18,17,14,31.70
2016,08,18,17,15,31.80
2016,08,18,17,16,31.90
2016,08,18,17,17,31.90
2016,08,18,17,18,31.90
2016,08,18,17,19,31.90